User: anonymous   Login
Location: Astronight Observatory
(42.6003°N, 71.2981°W)
Time: 05:55:30
(UTC-05:00)
Language:

DELTA 2 R/B (1) - Orbit

View from above orbital plane
View from above orbital plane
View from above satellite
View from above satellite

Ground track
Ground track

The orbit data is extracted from the following two-line orbital elements,

1 27665U 03005C   15029.59603417  .00000167  00000-0  99957-4 0  2198
2 27665 039.5742 217.6654 0007875 008.3699 039.4148 14.28287275626561
Epoch (UTC): 29 January 2015 14:18:17
Eccentricity: 0.0007875
inclination: 39.5742°
perigee height: 792 km
apogee height: 803 km
right ascension of ascending node: 217.6654°
argument of perigee: 8.3699°
revolutions per day: 14.28287275
mean anomaly at epoch: 39.4148°
orbit number at epoch: 62656

The dashed part of the orbit path shows where the satellite is in the earth's shadow,  

DLR